NOAA 16 DEB, 42364

Orbit data source: Space-Track

NOAA 16 DEB, 42364 is space debris in SSO originally from a launch on Thu, 21 Sep 2000 UTC launched from the Air Force Western Test Range (AFWTR). Debris objects in space refer to the collection of defunct objects orbiting the Earth. Examples of debris include non-operational satellites, rocket bodies, and fragments generated from explosions, collisions, or faulty payload assembly.

Loading next visibility...
Identifier
42364, 2000-055RG
Orbit
SSO
Country
Flag of USUS
Related business
Manufacturer
Unknown
Mission
Spacecraft
Bus & Motor
Unknown
Mass
Unknown
Launch date (UTC)
2000-09-21 (26 years ago)
Launch vehicle
Unknown
Launch site
Air Force Western Test Range (AFWTR)
Object type
Payload
Rocket body
Debris
Shape & HBR
Unknown shape, 0.1 m
Radar Cross Section
Medium (>0.1 m² and <1 m²)

Expand to show TLE details & history
Last TLE update: 1 week ago

TLE from 1 week ago
0 NOAA 16 DEB
1 42364U 00055RG  26153.56069784  .00010104  00000-0  27221-2 0  9993
2 42364  98.8009 270.1021 0035119 350.6974   9.3563 14.47776013526842
Epoch: 2026-06-02T13:27Z
TLE epoch observation values (Epoch: 2026-06-02T13:27:24.293Z)
Latitude
-0°
Longitude
177.21897°
Altitude
711.227 km
Speed
7.513 km/s
True Right ascension
18h 00m 24s
True Declination
0° 00' 00"
Sunlit
Object was in full shadow at epoch
Visualization orbit readout
Latitude
Unknown
Longitude
Unknown
Altitude
Unknown
Speed
Unknown
Apparent Right ascension
Unknown
Apparent Declination
Unknown
Sunlit
N/A
Visualization observer readout
Local Sidereal Time
18:49:59
Azimuth
Unknown
Elevation
Unknown
Doppler factor
Unknown
Orbital elements
Apogee altitude
755.011 km
Perigee altitude
705.084 km
Semi-major axis
7,108.185 km
Eccentricity
0.00351
Inclination
98.8009°
RAAN
270.1021°
Arg. of periapsis
350.6974°
True anomaly
9.42201°
Mean anomaly
9.3563°
Eccentric anomaly
9.38913°
Mean motion
3.62164 °/min
Orbital period
99.4 mins
BSTAR
0.0027221
Loading maneuver chart data...
Computing Atmospheric mass density...
Loading historical data...
Loading historical data...
Loading historical data...
Loading historical data...
Loading historical data...
Loading historical data...
Loading historical data...

Documentation

Showing up to 5 results
|